Terug naar catalogus

FENGYUN 1C DEB

ActiefSSO
NORAD 30505·DEBRIS·🇨🇳 China

Gelanceerd May 10, 1999 vanaf Taiyuan Satellite Launch Center

Loading…

Volgende Passages (komende 24 uur)

TLE

VersSource: Space-Track

Epoch: Sep 14, 2026, 12:17 UTC

1 30505U 99025AHT 26257.51202514  .00002114  00000-0  92851-3 0  9996
2 30505  98.9163 345.6544 0064240 169.7873 314.5879 14.23563699  8372

Volg FENGYUN 1C DEB in realtime met AllMySat

Download on the App Store